Theta_e
334 336 336 335 335 335 336 336 335 335 335 335 335 335 335 335 334 333 331 330 329 327 326 326 325 323 322 322 320 320 319 318 318 317 315 314 313 313 312 312 311 311 311 311 311 310 309 308 308 309 310 309 309 309 309 309 309 309 309 307 306 309 309 307 303 302 304 308 306 306 309 310 308 309 309 310 310 311 310 312 312 311 311 310 310
334 335 335 335 335 336 336 337 335 334 333 333 334 334 334 334 333 332 331 329 329 327 326 326 325 323 322 321 320 319 318 316 316 315 313 313 313 313 313 311 311 311 311 310 310 310 309 307 307 308 309 308 309 308 309 307 308 306 306 307 306 307 310 308 305 303 301 305 305 307 306 308 305 309 309 308 309 310 310 310 311 311 310 310 310
335 336 335 335 335 336 337 335 334 334 333 333 334 333 333 333 332 332 331 329 328 327 326 326 324 323 321 321 319 318 317 315 315 314 312 311 311 312 312 312 311 310 310 309 308 309 308 308 308 309 309 308 309 309 310 309 308 307 307 307 307 307 308 308 306 304 303 301 305 304 306 306 305 305 308 309 309 310 309 309 310 310 310 310 310
335 335 335 335 336 336 335 333 333 334 333 333 333 333 333 332 332 331 330 329 327 327 327 325 323 322 321 320 319 317 316 315 314 312 311 311 311 310 311 312 311 310 310 309 309 309 309 308 308 309 309 308 308 308 308 309 308 307 307 307 307 307 308 308 307 306 304 302 303 303 305 305 304 306 308 309 308 308 309 309 310 309 309 309 309
335 335 335 335 336 335 333 333 333 334 333 332 333 333 332 332 331 330 330 328 327 326 325 325 323 322 321 319 318 317 316 314 312 312 311 312 311 311 311 311 311 311 311 310 310 310 310 309 308 308 308 308 308 307 308 308 308 308 307 306 306 307 308 308 307 306 304 303 303 304 305 305 305 305 306 305 306 307 309 308 308 309 308 308 308
335 335 334 333 333 333 333 332 333 333 333 332 332 332 332 331 330 329 328 327 327 326 325 324 323 322 320 319 319 317 316 315 312 311 311 311 312 312 312 312 311 311 311 310 310 311 310 309 309 308 308 307 307 307 308 308 307 307 307 307 307 308 308 308 307 307 306 303 303 303 305 303 304 305 306 307 305 304 306 307 308 309 307 306 306
334 335 334 332 331 332 332 332 333 333 333 332 332 331 331 330 329 327 327 326 326 325 325 324 323 322 321 320 318 317 316 314 313 312 311 311 311 311 311 311 311 312 311 311 311 311 310 310 310 309 308 308 308 307 308 308 308 307 307 308 308 308 307 307 307 306 305 304 303 303 302 304 304 301 304 307 307 305 304 305 304 307 307 306 304
332 333 333 331 331 329 331 332 333 332 333 333 332 331 330 329 328 327 326 325 325 324 324 324 323 322 321 320 319 318 317 315 313 311 311 311 311 311 311 311 311 311 312 312 312 311 311 310 310 310 310 310 310 310 310 308 308 307 308 309 308 308 307 306 306 304 305 304 302 301 301 301 301 304 305 306 304 303 304 304 302 303 304 305 305
331 332 331 330 329 330 331 332 332 331 331 331 331 330 329 327 326 325 325 325 325 325 325 324 323 322 321 320 319 319 317 316 314 312 311 310 311 311 310 311 311 311 311 312 311 311 311 311 311 308 308 307 304 305 304 305 310 308 308 309 308 307 307 307 305 304 303 304 303 303 301 300 301 301 302 302 301 301 304 306 303 304 304 303 304
331 331 330 330 330 330 331 332 331 331 331 330 329 328 326 325 324 323 323 324 324 324 325 324 323 321 320 319 319 319 317 317 313 306 306 311 311 310 311 311 310 311 311 311 311 311 311 311 309 308 307 305 302 298 297 297 300 305 306 308 309 308 306 306 305 303 303 302 302 302 300 299 299 301 302 304 304 305 303 304 302 302 303 303 303
331 331 330 330 330 330 330 330 329 329 329 329 327 325 323 323 322 322 321 321 322 323 324 323 322 322 320 319 319 319 318 315 300 299 299 302 310 312 311 311 311 311 311 311 311 311 310 308 309 308 307 304 303 296 296 295 295 295 295 297 299 305 308 306 305 305 302 301 303 303 301 300 301 302 303 304 304 303 302 303 303 302 301 299 297
330 330 330 330 330 329 329 328 329 328 327 325 324 322 322 322 321 321 320 320 321 323 323 322 322 322 321 320 319 319 318 304 296 297 298 299 304 311 312 311 311 311 311 310 310 311 310 310 309 310 309 307 306 304 301 296 294 294 294 295 294 294 294 303 306 305 304 302 301 302 303 301 301 302 302 303 303 303 304 304 304 303 302 299 299
330 329 329 329 330 329 328 328 328 327 325 323 322 321 320 320 320 319 319 320 321 321 322 322 322 322 321 319 319 318 317 297 296 296 297 298 299 307 312 312 311 311 311 311 310 310 311 311 311 311 308 306 306 306 305 304 298 296 296 296 296 296 294 293 294 306 308 304 303 301 302 303 301 301 303 303 306 304 304 302 304 304 303 300 300
330 328 327 329 329 329 327 325 324 324 323 321 320 319 319 319 320 320 320 319 319 321 323 322 322 321 321 320 319 318 315 297 295 295 296 296 297 300 313 312 312 311 311 311 311 311 311 311 310 309 309 309 310 308 307 306 305 307 308 308 307 304 295 294 294 295 302 306 305 303 303 304 302 302 304 305 304 304 303 301 304 303 302 302 303
329 328 328 328 327 326 324 324 322 320 319 318 318 319 319 320 320 319 319 318 318 320 322 322 322 322 321 320 319 318 313 294 294 294 294 294 295 297 313 312 312 312 311 311 311 311 311 311 311 310 309 310 311 309 309 308 309 308 307 307 308 307 308 307 307 309 308 308 307 306 305 304 304 304 303 304 305 306 307 304 305 305 305 306 305
329 328 328 327 326 324 323 323 321 318 315 315 316 318 319 320 319 319 318 318 318 320 321 322 321 321 320 320 319 317 310 293 293 293 293 294 293 309 312 312 312 311 311 311 311 311 311 311 311 310 310 310 306 298 302 314 308 307 306 307 307 307 304 304 296 297 306 307 307 307 306 305 297 304 303 303 304 307 308 306 307 306 303 302 300
327 327 326 326 325 324 323 320 319 317 316 315 315 318 319 318 319 318 317 317 316 317 318 320 320 320 319 319 318 316 308 296 292 293 293 292 298 309 311 310 311 310 310 310 310 310 311 310 311 310 309 310 302 295 295 298 309 306 306 307 307 307 306 308 296 291 292 292 290 289 288 290 290 291 292 292 300 303 306 302 302 303 301 299 300
326 326 326 327 323 320 319 318 316 314 315 315 317 318 319 319 318 317 317 316 315 316 317 317 319 319 319 318 318 315 310 299 292 292 292 292 300 309 310 309 310 310 310 310 310 310 310 305 309 310 309 311 295 294 294 302 309 307 307 307 306 306 305 306 308 308 293 292 292 292 291 292 292 292 292 293 295 300 305 300 302 302 300 300 298
327 325 324 324 321 320 319 317 316 315 315 317 318 318 317 315 315 316 317 316 315 315 315 316 316 316 317 318 311 313 311 300 292 292 292 292 301 310 308 309 308 309 309 308 310 310 310 306 301 303 308 307 291 293 293 300 309 307 307 307 304 304 305 307 308 308 308 308 307 306 303 299 304 308 307 294 294 301 306 304 304 302 299 299 299
327 326 325 322 320 320 319 316 316 316 316 316 316 317 315 313 313 314 314 314 313 312 312 314 313 314 315 315 312 313 310 305 298 291 292 293 294 309 309 308 307 308 308 307 307 309 309 308 302 291 291 291 291 292 292 292 308 309 307 307 305 303 306 306 305 306 305 304 305 305 305 307 306 306 306 307 307 306 305 306 305 303 302 299 299
326 326 325 322 322 321 319 317 315 316 316 317 316 314 313 313 312 312 311 311 310 310 311 311 311 312 312 312 311 312 310 307 300 291 292 293 293 296 309 308 308 307 307 306 306 307 307 306 307 293 290 291 291 290 292 291 293 307 308 308 308 305 301 306 303 300 306 305 305 305 305 305 305 304 303 303 302 303 304 304 304 304 303 300 298
326 326 324 322 323 322 319 318 316 316 315 312 311 311 312 313 312 312 311 310 309 308 309 308 308 308 309 309 310 310 308 304 303 292 292 292 293 293 305 309 307 307 305 305 305 306 306 306 308 296 289 290 290 290 291 292 290 305 314 292 289 292 304 306 306 307 306 304 303 302 303 302 302 302 301 302 301 302 303 303 304 304 303 303 300
326 325 322 320 319 319 317 315 313 314 312 311 311 310 310 310 310 310 310 309 309 307 305 306 306 306 306 306 307 307 306 303 297 298 292 292 292 293 291 299 296 309 306 305 305 305 307 308 303 291 290 289 290 290 291 290 292 302 288 290 293 289 295 305 305 305 304 303 302 303 301 302 303 301 300 300 302 303 303 303 304 304 304 304 302
324 322 319 317 317 316 315 313 312 312 310 309 309 308 308 307 306 307 307 307 305 305 305 306 305 304 303 303 304 304 305 302 296 295 295 290 292 291 292 293 297 305 307 306 306 305 306 307 301 289 290 289 289 290 290 291 299 289 290 290 289 291 303 305 302 305 300 300 300 301 302 301 302 301 300 302 301 303 304 305 305 305 304 304 304
321 319 318 317 315 313 312 312 309 308 308 309 307 306 306 306 306 307 307 306 306 305 304 303 303 303 302 301 302 302 302 304 300 296 292 291 290 290 291 291 293 292 305 306 306 307 297 290 288 289 289 289 289 289 290 290 287 289 289 288 294 302 303 304 304 304 302 301 300 301 302 301 301 301 303 304 304 306 304 304 304 305 304 304 306
318 317 316 315 314 312 311 309 309 307 307 308 308 307 305 306 307 307 307 306 305 303 302 302 302 302 302 301 301 302 302 301 300 299 295 294 293 290 290 290 293 292 296 302 291 289 290 290 288 288 289 291 298 300 302 302 290 290 289 291 303 302 304 303 303 301 301 301 299 298 300 301 301 304 303 303 304 302 301 301 301 302 303 301 302
317 316 314 312 312 312 309 308 308 308 307 308 308 307 307 308 307 305 304 302 303 303 303 302 303 302 303 303 302 300 300 301 300 300 299 298 299 298 297 298 294 293 299 303 298 299 296 297 297 294 294 291 293 295 297 293 296 297 300 300 301 304 302 303 303 303 301 300 299 300 301 301 303 302 303 302 302 301 302 301 300 300 301 301 300
316 315 313 312 311 311 308 298 304 307 307 306 307 307 306 307 306 305 304 304 303 303 303 302 301 301 299 300 299 301 299 300 300 300 299 299 300 300 301 301 301 301 300 303 302 302 301 294 295 300 300 299 298 300 300 301 300 299 301 301 302 302 300 296 296 301 302 302 301 300 301 302 301 301 300 300 301 301 302 300 301 300 299 301 299
315 315 313 312 310 308 307 306 307 307 307 306 306 306 305 305 305 305 308 307 307 305 303 302 301 302 302 302 300 299 298 298 301 297 301 295 299 301 301 301 301 301 299 296 302 303 301 299 300 299 299 295 297 300 301 301 302 302 303 303 303 302 301 299 300 300 302 301 301 302 299 300 300 300 300 300 301 300 303 300 301 301 301 301 298
315 313 312 311 309 307 306 306 306 306 307 307 306 304 291 292 301 307 306 294 293 296 298 303 302 302 302 303 302 298 298 301 295 294 294 294 294 294 295 295 295 300 296 293 299 302 300 299 299 298 300 299 298 298 299 300 299 299 301 296 300 302 301 301 301 301 301 300 300 299 300 300 300 301 300 299 300 301 300 297 300 301 299 299 298
314 313 311 310 306 306 306 306 306 307 308 308 307 305 305 302 290 291 294 294 293 292 294 293 295 297 302 303 301 292 294 293 292 293 293 293 293 292 293 293 292 291 292 301 298 297 298 297 299 299 298 299 298 298 298 298 297 298 300 299 298 295 296 301 302 299 298 295 295 300 299 299 298 300 300 300 299 299 299 300 301 301 299 298 298
314 313 313 309 305 306 307 307 307 308 309 310 307 305 305 303 300 291 290 291 291 290 291 291 292 293 293 296 301 305 294 291 293 292 293 292 292 291 291 291 290 290 291 293 296 297 299 298 298 298 300 298 298 298 299 299 299 297 298 297 298 299 298 298 299 301 298 297 296 295 296 297 299 297 297 297 294 297 298 299 298 299 299 298 299
317 315 312 307 305 304 305 305 305 307 307 307 308 308 307 304 303 301 296 289 290 290 290 290 291 291 292 292 291 292 297 294 292 292 292 292 291 291 290 290 290 289 290 295 296 296 298 300 299 300 300 298 299 299 299 300 299 299 299 298 297 299 299 301 297 300 297 299 295 297 297 296 296 295 294 294 295 295 296 296 297 298 297 298 297
314 314 311 309 307 306 306 306 306 308 310 311 309 308 308 309 309 306 302 298 295 292 290 289 290 290 290 291 292 293 292 292 291 292 291 291 291 290 291 293 289 288 292 298 297 296 298 299 298 300 301 300 300 299 298 299 299 299 299 299 299 300 300 302 301 298 296 296 296 295 294 295 295 295 295 296 295 296 295 295 297 295 295 296 295
314 303 295 301 309 308 308 307 308 310 310 312 309 307 309 310 310 306 303 300 299 298 299 296 291 290 295 292 291 291 291 291 291 291 291 290 290 290 291 296 293 294 295 299 299 299 299 299 299 299 300 300 300 299 299 301 300 299 298 299 299 299 298 297 297 297 296 297 296 296 295 295 297 295 294 294 293 293 293 293 294 295 295 295 294
315 314 309 306 309 310 311 312 313 311 309 308 310 311 309 308 307 307 304 302 301 301 300 302 300 291 290 292 291 290 290 290 290 290 290 290 289 290 294 295 295 296 296 298 299 300 300 299 299 298 299 299 301 300 300 300 300 299 300 298 296 297 297 296 294 295 293 293 295 294 295 295 295 294 294 293 295 294 294 293 294 293 294 293 293
316 315 313 311 312 313 314 314 314 314 304 306 308 311 310 308 305 306 304 301 300 302 304 303 302 298 293 297 291 289 289 289 289 290 289 290 289 293 299 299 298 299 298 299 300 299 299 299 299 300 300 300 300 300 299 299 299 300 297 298 298 297 296 296 296 293 294 294 294 294 293 293 294 293 293 292 292 293 293 292 292 292 291 291 290
316 315 314 314 315 315 314 314 313 302 307 308 309 308 306 306 305 302 300 300 301 300 302 302 298 300 298 298 296 296 292 289 289 289 289 289 290 294 300 300 300 300 301 300 301 300 300 300 300 299 300 300 300 300 299 300 299 299 298 298 295 296 293 294 292 293 292 293 294 294 294 293 293 294 293 293 292 292 292 292 292 292 291 291 291
317 305 300 300 304 314 313 312 311 310 309 308 307 304 301 303 303 302 301 300 299 300 299 301 301 301 300 299 297 297 293 294 294 294 293 294 294 295 298 301 301 301 302 301 301 301 301 300 298 298 299 299 299 299 299 299 299 298 299 296 296 295 295 295 294 294 294 294 295 295 295 295 295 295 294 294 293 293 293 292 292 292 292 292 292
317 315 305 297 308 310 310 309 311 310 309 308 309 306 302 301 301 299 299 299 298 298 300 300 299 301 300 299 296 296 295 294 294 294 294 294 294 296 297 298 300 301 301 302 302 301 300 299 298 298 299 300 299 299 299 299 299 297 297 296 295 295 295 294 295 295 295 295 295 296 295 295 296 296 295 295 295 294 293 293 293 293 293 293 292
315 311 301 301 305 310 309 309 309 310 310 308 308 306 304 302 302 298 299 297 296 296 297 298 299 300 300 296 292 292 296 295 295 296 295 295 295 296 297 299 299 300 301 300 301 300 299 299 299 299 299 300 300 298 298 298 297 297 295 296 295 295 295 295 295 296 295 295 296 296 296 296 296 296 295 295 294 294 294 294 294 294 293 293 293
312 308 306 306 303 310 309 306 307 304 306 307 306 305 304 301 301 300 298 296 294 295 296 297 298 299 294 290 290 290 295 296 296 295 296 296 296 297 297 298 299 300 300 300 300 299 298 298 299 299 297 297 297 296 297 296 296 297 296 296 295 295 295 296 296 295 295 296 296 296 295 296 296 296 295 293 295 296 295 295 295 295 294 294 294
309 309 308 305 306 306 306 308 307 307 306 306 306 301 301 301 301 300 298 296 296 295 296 296 297 296 293 289 290 288 296 297 292 295 297 297 297 297 297 298 299 300 301 301 301 300 298 297 295 294 297 298 298 297 297 296 296 296 296 295 295 295 295 295 296 296 297 296 296 295 294 295 295 295 295 295 295 295 295 295 295 295 294 294 294
308 307 305 304 304 304 305 305 304 303 303 299 300 300 300 302 301 300 299 297 296 295 295 296 295 294 293 290 290 292 294 295 296 297 296 296 298 298 299 299 299 299 299 298 299 297 296 295 294 294 299 298 299 299 298 297 297 296 296 296 295 295 295 295 296 296 296 296 296 295 295 294 294 295 294 294 295 295 295 294 294 294 295 295 295
311 308 305 305 304 305 304 303 302 301 297 297 300 301 298 302 301 300 299 298 294 295 295 295 295 293 292 293 293 293 294 295 294 295 294 295 295 295 295 296 297 298 296 296 296 296 295 294 294 293 293 296 298 299 300 300 300 298 296 297 296 296 296 296 296 296 295 295 296 296 296 296 295 296 296 296 295 295 295 295 295 292 294 294 294
310 308 306 306 304 302 300 301 300 300 298 299 298 298 298 301 302 299 296 297 295 297 298 295 293 293 293 294 294 293 294 295 295 294 293 293 294 295 294 297 297 297 296 293 294 294 293 292 292 292 291 293 296 297 297 298 299 300 301 300 298 298 298 298 298 296 296 296 296 296 295 295 295 295 293 296 297 297 296 295 295 295 295 294 294
308 307 305 307 305 303 300 299 297 298 299 298 297 296 296 297 297 295 293 295 294 293 293 293 293 293 293 294 294 294 295 294 294 294 293 293 293 293 293 293 294 293 293 292 291 292 292 292 292 292 291 291 292 295 296 297 299 299 300 298 299 299 299 298 298 297 296 296 296 296 296 296 296 296 295 295 295 295 294 294 294 293 294 294 294
306 305 304 302 302 300 299 297 295 293 297 297 297 296 295 295 295 294 293 292 292 292 292 292 293 292 292 292 292 292 292 292 292 292 292 292 292 292 292 292 291 291 291 290 291 291 291 291 291 292 290 291 291 292 293 295 295 296 297 299 296 291 289 289 295 296 296 296 296 295 295 295 295 295 295 295 294 294 294 294 294 295 294 294 294
304 303 303 302 300 298 296 295 294 296 297 296 295 295 294 294 293 294 293 294 293 292 293 293 293 292 292 291 291 291 290 290 290 291 291 292 292 292 292 291 290 291 290 289 291 291 292 292 291 292 292 291 292 292 294 296 296 296 294 291 287 285 285 285 289 293 291 291 292 293 294 294 293 293 292 292 292 293 293 293 293 293 293 293 293
301 300 300 299 300 298 297 297 297 297 296 296 295 294 294 294 294 293 293 292 292 292 293 293 293 294 293 292 292 292 292 291 291 291 291 291 291 291 291 291 291 292 290 291 291 292 292 291 292 292 292 293 294 293 292 289 289 288 288 287 284 285 285 285 287 286 288 291 292 293 295 294 294 293 293 293 293 292 292 292 292 291 292 292 291
300 299 298 298 297 297 298 298 298 298 297 297 296 295 294 294 293 293 292 292 292 292 292 293 293 292 292 293 292 293 291 292 292 292 292 292 294 294 293 293 292 292 292 292 292 292 293 294 293 292 290 289 289 288 287 286 284 284 283 283 283 283 284 285 287 286 286 287 291 292 293 292 292 292 292 293 293 292 291 290 290 291 291 292 291
Wind_Speed
14 14 14 13 13 13 12 12 13 12 13 13 13 13 12 11 10 10 10 10 10 10 10 10 10 9 9 8 8 7 7 7 6 6 6 6 6 7 7 8 8 7 7 7 6 6 7 8 8 7 6 6 5 5 6 6 6 6 6 6 6 6 6 6 6 6 6 5 5 6 8 9 7 9 9 8 8 8 8 8 9 9 8 8 6
14 14 12 11 14 14 14 12 13 12 13 13 11 13 12 11 11 11 10 10 10 10 11 10 9 10 9 9 8 8 8 7 7 6 7 7 7 5 7 8 8 8 7 7 7 5 6 8 8 8 7 7 6 6 6 7 7 7 7 7 7 7 7 5 5 5 6 6 6 7 7 9 8 9 9 9 9 8 9 8 8 8 8 8 8
13 13 12 12 14 13 13 12 13 14 14 13 14 13 13 12 11 11 11 10 10 10 10 10 10 10 9 9 8 8 8 7 7 7 7 7 7 7 7 8 8 8 8 8 7 7 7 7 7 6 5 6 6 6 6 6 6 7 7 6 7 6 6 7 5 5 5 6 6 6 7 8 9 10 10 8 8 7 8 8 8 7 7 8 8
11 13 14 13 12 12 12 13 15 15 15 13 14 14 11 11 10 11 11 10 11 10 10 10 10 10 9 9 9 8 8 7 8 7 8 8 8 9 8 8 7 7 7 8 7 6 7 7 6 6 6 6 6 6 6 6 6 6 6 6 6 6 6 6 6 5 5 5 7 7 7 7 8 9 8 7 8 7 6 7 7 8 9 8 8
13 13 13 13 13 13 14 14 15 15 15 14 15 14 11 11 10 11 11 10 11 11 10 10 10 10 9 9 9 8 8 8 8 8 7 7 8 8 8 8 8 7 7 7 7 6 6 6 6 6 6 6 6 6 6 7 6 6 5 5 5 5 5 5 5 5 5 6 5 7 7 7 7 8 9 9 8 7 7 7 7 7 9 10 8
14 15 13 13 13 14 15 14 15 16 15 14 15 13 11 11 11 9 11 11 11 11 11 9 9 10 10 10 9 9 8 8 8 9 8 8 8 8 8 8 8 8 8 7 7 6 6 6 7 6 6 6 6 6 6 7 6 6 6 6 5 5 5 5 5 5 5 6 6 6 7 8 8 8 9 9 9 9 8 7 7 7 8 10 10
11 12 14 14 13 12 13 13 14 14 14 14 14 12 11 11 11 11 10 11 11 11 11 11 9 10 10 9 9 9 9 8 8 8 9 9 9 9 9 9 8 7 7 8 7 7 7 6 6 6 6 6 6 6 5 6 5 6 5 5 5 4 4 4 4 5 5 5 6 7 7 7 7 8 8 8 7 8 9 9 9 9 7 9 11
14 12 12 13 12 10 8 10 11 12 12 14 14 12 11 11 10 10 10 11 11 11 11 10 10 9 9 9 9 9 8 8 8 9 9 9 9 9 9 9 8 8 8 7 7 7 7 7 6 6 6 6 5 5 5 4 4 5 4 4 5 4 4 4 4 5 5 6 7 7 7 7 7 7 7 8 8 9 10 9 10 10 9 8 10
14 13 12 12 13 14 13 11 11 14 14 14 15 12 11 10 10 10 9 10 9 11 11 11 11 10 10 9 9 8 8 7 7 8 9 9 9 9 9 9 9 9 8 8 7 7 7 7 7 8 10 10 12 10 10 9 5 4 4 4 5 5 4 4 5 5 5 6 7 7 7 8 8 9 9 10 11 10 9 9 8 9 9 8 9
12 12 13 12 12 13 14 13 14 14 16 15 15 12 11 10 10 10 10 10 10 10 11 11 10 10 10 10 9 8 7 6 6 7 8 9 9 8 8 9 9 8 8 8 7 7 7 7 9 13 11 10 9 11 12 13 12 10 7 6 5 4 5 5 5 5 6 6 7 7 8 9 9 10 9 9 9 9 9 10 9 9 9 8 8
12 12 13 12 13 13 13 12 13 15 15 14 11 11 11 10 10 10 10 10 10 11 12 12 11 10 11 10 10 8 7 6 10 6 4 7 9 8 8 8 8 8 8 8 7 7 8 9 9 10 10 9 9 10 10 9 9 9 10 10 10 8 6 5 6 6 6 7 6 6 7 8 9 9 9 9 9 9 9 8 8 9 9 10 11
13 13 12 13 14 15 12 13 13 13 12 12 12 11 11 11 11 10 10 10 10 10 12 12 12 11 10 10 10 8 7 11 11 8 7 6 5 8 8 8 8 8 8 7 7 7 8 8 7 7 6 8 9 8 8 7 7 8 8 8 9 9 8 8 6 6 6 6 7 7 6 7 7 8 9 9 10 9 9 8 8 8 9 9 9
13 13 13 14 14 14 13 14 14 13 12 12 11 10 11 11 11 11 11 10 9 10 12 12 12 11 10 11 10 9 8 12 11 10 9 7 4 6 8 7 7 7 7 7 7 7 7 7 7 5 7 12 8 8 8 7 6 6 9 8 5 5 6 8 8 8 5 6 6 7 7 6 7 8 9 10 10 8 9 8 9 8 7 7 8
13 12 13 14 14 14 14 13 12 12 12 11 10 11 11 11 10 10 9 9 9 10 12 12 11 11 11 10 10 9 9 12 12 11 10 8 7 8 7 8 7 7 7 7 7 7 7 7 7 7 7 8 6 7 7 7 7 6 6 4 4 4 5 5 5 5 4 6 6 6 6 6 6 7 9 9 9 8 8 9 9 9 8 6 5
13 14 14 14 13 13 12 13 13 12 10 10 11 11 11 10 11 10 9 10 10 10 12 12 10 10 10 10 10 9 8 14 12 12 10 9 8 8 6 7 7 7 7 7 7 7 7 6 7 7 8 7 5 4 6 5 4 3 3 3 2 4 4 5 5 5 5 5 5 5 5 5 6 7 8 9 9 7 7 8 9 8 7 4 2
14 14 14 14 14 14 13 12 13 13 11 9 10 11 11 12 12 10 9 9 8 8 9 9 10 10 10 11 10 9 9 15 12 12 10 10 8 7 7 7 7 7 7 7 7 6 6 6 7 7 7 7 7 1 6 1 5 3 3 3 3 4 5 4 3 5 6 5 5 5 5 4 5 5 6 7 9 8 8 5 6 7 7 6 7
11 12 13 14 13 14 14 13 11 13 14 12 11 12 11 11 10 9 10 10 9 9 9 8 9 10 10 10 10 9 10 11 12 12 11 11 9 9 7 8 7 8 8 7 7 6 6 7 6 6 7 6 9 6 4 7 2 3 3 2 2 2 4 4 4 3 3 2 2 2 2 2 5 7 9 9 7 10 7 6 8 8 8 8 8
13 13 13 14 12 12 12 12 11 10 11 13 12 10 10 8 9 10 11 11 10 10 9 8 9 9 10 10 10 9 10 11 12 12 12 12 11 8 8 8 8 7 8 7 7 7 5 6 5 5 7 6 12 10 7 6 4 3 3 3 4 3 4 3 4 5 6 5 6 8 8 9 11 10 10 8 9 10 8 8 8 8 7 8 8
14 15 15 15 10 10 12 13 13 12 12 10 10 10 10 10 9 9 9 9 9 8 8 8 8 7 9 9 9 10 10 11 12 12 12 13 11 7 8 7 8 8 7 8 6 6 6 6 1 5 4 10 13 10 8 8 4 3 2 3 2 2 2 2 2 3 5 6 6 7 7 10 10 8 7 8 9 9 6 7 7 7 7 8 8
13 13 13 13 13 13 11 12 13 14 13 11 10 9 8 8 9 9 8 8 8 8 8 7 8 8 8 8 8 8 10 10 11 12 12 12 13 8 8 7 8 8 7 8 7 6 7 7 5 3 5 9 10 11 8 8 7 2 3 3 2 3 3 1 3 3 1 1 1 1 1 1 1 2 2 3 3 4 4 6 6 6 6 7 7
9 12 13 13 13 12 10 11 13 12 13 11 10 9 8 9 9 9 9 7 7 7 9 8 8 7 7 8 9 8 8 11 11 13 12 12 13 12 6 7 7 7 7 7 7 7 7 7 7 8 6 7 8 8 7 6 6 5 4 1 4 6 4 3 5 6 3 2 3 3 2 2 1 1 0 1 3 4 4 4 5 5 5 6 6
13 12 12 14 14 14 10 8 8 8 7 8 9 8 7 7 8 9 7 8 9 8 8 7 7 7 6 7 7 7 8 10 10 12 11 12 12 13 8 7 6 7 6 7 7 7 6 6 7 8 8 8 7 7 5 5 5 8 3 8 5 2 5 3 3 5 4 3 1 1 1 1 1 1 2 1 2 3 3 4 4 4 4 4 5
13 13 13 14 14 14 9 11 9 8 8 8 9 8 7 7 6 6 7 7 7 7 6 7 7 7 6 6 6 7 8 7 11 11 11 11 11 13 9 9 2 4 7 7 6 6 5 5 8 10 9 8 7 7 6 5 6 3 6 3 4 2 5 6 2 3 2 1 1 1 1 2 2 1 2 3 2 3 4 3 3 3 3 2 2
12 13 13 14 14 13 10 10 8 7 8 8 5 8 8 8 7 6 7 8 7 7 6 6 7 7 7 7 6 7 7 7 9 11 10 10 10 9 5 6 4 4 4 6 5 4 6 5 8 10 9 8 7 7 6 6 1 7 4 4 3 4 6 5 5 3 2 3 3 2 2 0 2 1 2 3 4 4 4 4 4 4 3 3 2
11 11 12 13 13 12 11 8 7 6 7 7 8 7 8 9 8 6 7 7 6 6 6 6 5 6 6 5 6 6 7 7 8 9 11 10 8 7 5 4 4 5 3 5 4 4 11 15 13 10 9 8 8 7 5 3 4 5 4 5 5 7 6 6 4 3 4 3 3 2 2 2 0 1 2 3 5 6 4 4 4 4 4 5 6
10 10 11 11 13 13 12 8 7 7 7 5 5 7 8 8 8 8 6 6 6 7 7 7 7 7 7 8 8 7 7 7 8 8 8 7 7 5 4 4 3 5 7 7 13 13 13 12 10 9 7 6 8 7 7 6 7 6 6 6 7 7 6 5 4 5 4 3 2 2 2 1 2 0 2 4 5 3 3 4 5 4 4 5 5
10 10 11 11 12 12 13 9 8 8 10 8 8 10 9 8 7 7 7 6 7 7 8 8 8 8 7 6 7 7 8 8 8 8 9 8 8 6 6 5 2 3 5 5 8 7 8 7 6 5 3 7 3 3 8 9 7 6 6 7 8 6 5 5 4 4 3 3 2 2 1 1 1 3 4 4 4 2 2 4 5 5 5 5 6
10 11 11 11 11 11 10 11 9 6 7 7 8 6 6 7 8 9 9 9 9 8 8 8 8 8 8 7 7 6 8 8 9 10 10 10 10 10 10 9 8 9 9 7 7 8 7 6 6 5 4 5 6 7 7 7 8 8 8 8 7 5 0 6 5 4 3 2 2 2 3 3 4 3 3 4 3 2 2 4 4 5 5 6 6
9 11 11 10 11 9 10 11 12 9 8 8 6 5 6 7 7 6 5 6 7 8 9 6 6 6 6 7 8 7 7 9 10 9 11 12 9 11 10 10 9 9 8 8 8 8 7 7 7 7 7 5 8 7 8 7 7 7 6 5 6 5 6 6 6 6 4 3 4 3 3 3 3 3 4 4 2 3 2 3 4 5 5 5 6
10 10 10 10 10 10 10 10 9 8 10 9 8 4 10 10 5 3 5 7 9 6 4 5 6 6 6 6 9 11 11 9 10 13 13 13 10 9 9 10 11 7 10 11 8 7 7 7 7 7 7 7 7 6 5 7 7 7 6 6 5 5 5 6 5 4 3 3 3 3 4 3 4 4 3 3 3 4 2 2 4 4 5 5 6
9 9 9 9 10 10 9 9 9 8 8 8 7 7 6 4 9 10 9 7 7 8 7 7 8 9 8 7 9 6 4 12 16 14 13 12 10 8 8 9 8 9 12 8 5 5 5 6 6 7 7 7 6 6 5 5 4 3 5 6 6 4 4 5 5 3 3 3 3 4 3 4 4 4 4 3 3 4 5 4 4 5 5 5 6
9 8 8 8 9 8 9 7 8 9 8 9 8 8 7 7 4 6 7 8 8 6 6 5 4 8 9 7 4 7 5 10 16 16 15 14 12 10 9 10 10 11 10 9 6 6 5 5 5 6 7 6 4 6 6 6 6 5 5 4 4 5 5 5 4 4 4 4 3 3 3 3 5 3 4 4 4 5 5 4 5 5 5 5 5
9 9 9 10 10 9 8 7 7 9 10 10 8 8 9 9 9 7 4 5 5 6 5 6 7 7 8 9 6 6 3 11 14 15 15 15 14 12 11 10 10 9 7 6 7 6 5 7 7 7 7 6 7 6 6 6 6 6 6 6 4 5 6 5 3 4 4 4 3 3 3 3 3 4 3 4 5 3 4 3 6 5 5 6 5
7 8 9 11 11 9 8 9 10 10 9 11 8 9 9 9 9 9 9 7 4 2 4 6 7 7 7 7 8 5 7 12 12 14 14 14 14 13 11 7 6 7 7 9 9 7 7 8 8 8 7 7 6 6 7 7 6 6 6 5 5 5 4 3 4 4 3 3 4 4 4 4 3 3 3 3 3 4 4 4 6 4 4 4 4
6 6 9 11 10 9 8 8 8 8 8 9 9 9 8 9 8 9 9 9 9 9 8 6 6 9 6 5 5 6 8 10 11 12 13 13 13 14 12 8 5 5 6 10 10 9 9 8 7 6 6 6 7 7 6 7 6 6 6 5 5 5 5 5 4 4 3 4 3 4 3 4 5 4 4 4 4 4 4 4 4 6 6 4 4
6 6 7 7 6 7 8 8 9 9 8 8 7 8 8 8 8 8 7 7 7 7 6 6 7 7 6 5 8 8 7 9 10 11 12 13 14 15 10 8 8 9 10 11 11 9 8 8 7 7 7 7 6 6 6 6 6 6 6 5 4 5 5 3 4 4 3 3 3 3 3 3 4 4 4 5 7 5 5 4 4 4 6 5 4
7 6 7 8 7 6 8 8 9 9 8 8 7 7 7 6 6 6 5 5 4 4 5 6 7 7 5 5 6 5 6 7 8 9 11 13 16 13 11 11 10 10 10 10 10 9 8 8 7 7 7 7 6 6 6 6 6 6 5 5 4 4 3 2 2 2 2 3 3 3 3 4 4 4 4 5 5 5 5 5 5 5 5 5 6
7 7 7 8 9 8 8 8 7 6 7 6 6 5 5 5 6 6 6 6 6 6 6 6 7 7 8 7 9 6 6 8 10 8 6 6 6 7 10 10 11 11 10 10 9 9 8 8 8 8 7 6 6 6 5 5 5 5 5 5 3 3 1 2 1 4 4 4 4 4 5 4 4 5 5 5 5 5 5 5 5 5 5 5 6
7 5 5 9 8 8 8 8 7 8 7 6 6 6 6 5 6 5 6 6 7 7 6 6 6 6 7 7 8 9 10 7 5 4 4 5 6 8 8 8 9 10 9 8 8 8 7 7 7 7 6 6 6 6 6 5 5 5 5 3 3 3 3 4 4 4 4 4 4 4 4 4 4 4 4 5 5 5 5 5 5 5 6 6 6
7 7 6 8 8 8 8 9 7 7 7 7 7 7 7 6 6 5 5 5 5 5 5 5 6 5 7 9 9 9 8 8 8 7 7 6 6 8 8 8 8 8 8 7 6 6 6 6 6 6 6 7 6 6 5 6 5 3 3 3 3 4 4 4 4 4 4 4 4 4 4 4 4 5 5 5 5 5 5 6 6 6 6 6 6
4 4 7 7 6 7 7 7 7 7 7 7 6 6 6 7 7 7 6 6 5 5 4 4 5 5 7 9 12 11 7 7 7 7 7 8 7 8 8 8 8 8 7 6 5 5 4 4 4 5 6 5 5 5 5 6 4 3 3 4 4 4 4 4 4 5 4 4 5 5 5 5 5 5 6 6 7 7 6 6 7 6 6 6 6
5 5 6 6 5 6 6 6 5 6 5 6 6 6 5 5 5 6 6 7 6 5 5 4 4 3 6 12 12 10 5 5 6 7 7 7 7 7 6 6 6 6 5 5 5 4 4 4 4 4 3 3 3 4 4 4 3 4 4 4 4 4 4 4 4 5 5 5 5 6 6 6 6 7 7 9 7 7 7 7 6 6 6 7 7
6 5 6 6 6 5 4 4 4 5 5 6 6 5 6 6 6 5 5 5 6 6 6 5 4 4 5 8 11 9 3 4 7 8 7 7 7 7 6 5 3 3 3 2 1 1 1 1 2 2 3 4 6 4 5 4 4 4 4 4 4 5 5 5 5 5 5 6 6 5 5 5 6 6 6 6 7 7 7 7 7 7 7 7 7
5 5 5 5 5 4 3 4 4 4 3 3 3 4 5 5 5 6 5 5 5 5 5 5 4 5 5 5 7 6 5 3 1 4 6 5 6 6 6 5 5 4 2 1 1 1 1 1 1 2 4 5 5 7 5 4 3 3 4 4 5 5 5 6 5 5 5 6 6 5 5 5 5 6 6 6 7 8 8 8 8 8 8 8 8
4 5 5 5 5 5 5 5 4 5 5 5 4 4 4 4 4 5 4 4 4 4 4 4 4 5 5 6 6 7 6 5 5 3 3 3 3 3 3 2 3 3 3 2 2 2 2 2 2 2 2 3 5 6 6 5 5 3 4 4 5 4 4 4 4 4 4 4 5 5 5 5 5 5 6 6 6 7 8 8 8 10 9 9 8
2 3 4 4 4 4 4 4 4 5 5 5 5 5 4 4 5 5 5 4 4 3 4 4 3 4 4 4 5 5 4 4 4 4 3 3 3 3 3 4 3 4 2 2 2 3 3 2 2 2 3 3 6 6 6 6 7 7 6 5 5 3 3 4 3 4 4 4 4 5 5 5 6 6 7 7 7 8 8 8 8 8 9 9 9
2 2 2 2 2 3 3 4 4 4 4 4 4 4 4 4 5 5 5 5 5 4 3 3 4 4 3 4 4 4 4 3 3 3 3 3 3 3 3 2 3 2 2 1 1 1 1 2 2 3 3 3 3 6 6 6 5 4 4 4 5 6 5 3 3 3 4 4 5 5 5 6 6 6 7 8 7 8 8 8 8 8 8 9 9
2 2 2 2 3 3 4 4 4 4 3 4 4 5 4 4 5 5 5 5 4 4 3 3 2 3 3 3 3 3 2 2 1 1 2 2 2 2 3 3 2 2 2 2 1 1 1 1 1 1 2 1 2 3 4 5 5 6 6 3 7 8 9 9 5 7 4 4 4 5 5 6 6 6 6 6 6 6 7 7 7 7 7 8 7
2 3 2 2 3 4 4 4 4 4 4 4 4 4 4 4 4 5 5 4 4 3 3 3 3 3 3 3 3 3 3 3 2 2 2 2 3 2 2 2 2 3 2 2 1 1 1 1 2 2 1 1 1 2 2 3 3 5 7 8 10 14 12 11 7 6 9 6 5 6 5 6 6 6 6 7 7 7 7 7 8 8 8 8 9
4 3 3 3 3 3 4 5 5 5 4 4 4 4 3 4 4 4 4 4 4 3 3 3 3 3 3 3 3 3 3 3 2 2 2 2 2 2 3 3 3 2 1 1 1 1 1 1 0 0 0 1 2 3 6 7 8 7 7 8 12 11 11 10 6 6 7 4 4 4 4 5 5 5 5 5 6 5 6 6 6 5 6 7 8
5 5 4 4 4 4 4 5 5 5 5 5 5 6 5 4 4 4 4 4 3 3 4 4 4 4 4 4 4 3 3 3 3 2 2 2 2 2 2 2 2 3 2 2 1 1 1 2 4 6 6 6 6 6 6 7 7 7 8 11 12 12 12 11 8 10 9 6 3 3 3 3 3 4 4 4 4 5 4 6 6 6 6 6 7
Wind_Direction
166 170 171 171 173 176 184 180 174 175 176 174 173 171 170 162 160 149 149 148 153 154 151 148 143 141 140 137 131 127 125 124 125 125 118 113 106 109 113 111 109 107 108 105 99 94 89 86 80 72 66 65 65 62 53 49 49 44 38 41 43 30 21 38 44 55 47 18 19 15 18 357 26 13 12 11 8 7 11 8 7 6 5 358 41
166 165 167 170 174 180 178 169 173 171 170 173 168 173 168 163 160 151 150 150 157 156 152 148 144 145 141 136 131 127 128 126 130 125 120 119 116 115 115 115 115 114 111 105 101 94 90 87 83 76 67 68 63 60 57 54 50 48 44 40 42 42 19 18 54 41 44 23 23 29 23 15 18 19 9 3 3 1 8 11 7 6 4 2 4
165 163 165 172 180 178 171 170 171 169 167 169 173 172 168 162 161 159 150 155 159 158 152 150 147 145 141 137 133 130 127 128 128 127 125 127 126 125 122 121 122 122 119 113 108 106 102 96 91 86 79 77 71 67 62 59 58 56 51 46 44 39 38 25 23 45 40 44 14 21 17 20 19 14 4 0 358 1 1 15 4 9 5 4 7
171 172 172 177 176 172 167 170 172 169 167 169 174 171 161 157 156 156 148 154 160 157 155 151 148 147 143 139 136 136 131 132 134 131 132 129 132 131 128 127 126 123 120 117 114 109 103 101 95 91 85 76 71 69 59 55 57 56 56 55 53 42 36 38 29 27 27 40 34 21 18 11 19 15 2 356 3 3 6 13 12 13 13 7 8
175 175 172 173 175 173 170 170 171 170 167 171 173 169 157 156 161 153 151 157 159 159 157 152 151 149 148 146 142 139 138 137 134 134 132 137 132 133 133 128 126 121 114 111 112 112 106 97 94 90 85 80 75 68 61 55 52 51 52 56 49 45 44 35 33 29 35 30 36 35 22 19 17 13 5 358 4 8 2 16 12 10 17 14 8
176 172 168 171 176 174 170 169 171 170 168 169 171 164 156 157 154 153 152 154 160 162 157 155 156 152 152 148 144 141 139 137 137 141 140 140 138 133 131 132 128 125 124 121 116 112 107 100 93 87 81 80 74 69 61 57 55 53 49 40 45 45 42 41 37 33 33 45 28 30 34 17 11 14 5 358 2 5 2 7 17 11 16 14 13
170 165 165 169 171 173 168 171 169 169 168 169 172 164 157 154 155 153 152 152 156 164 161 158 157 156 151 148 148 143 139 140 139 144 147 146 143 140 136 135 133 129 125 120 118 114 108 102 95 86 84 81 77 72 72 63 56 53 41 40 32 32 38 34 35 44 38 34 44 34 26 28 15 7 7 359 6 12 3 359 12 7 17 20 9
174 172 167 163 160 147 171 181 169 162 168 171 173 163 154 155 154 149 151 156 161 163 162 160 156 158 150 152 147 144 142 145 147 152 154 151 148 146 142 142 138 134 128 125 121 118 114 110 104 94 79 65 58 67 51 61 63 48 41 34 31 24 30 37 33 41 44 46 37 34 30 21 18 15 5 7 11 17 14 0 6 3 8 23 22
173 171 166 167 163 171 174 172 163 168 171 172 172 160 154 149 148 148 153 159 165 166 168 161 160 157 154 152 149 148 151 149 155 161 156 155 153 150 149 146 144 140 137 131 127 123 118 108 96 85 76 66 49 44 43 21 12 56 45 37 34 32 27 32 40 40 46 40 42 35 31 23 19 10 10 9 12 4 0 360 8 8 4 13 22
172 174 175 171 167 170 172 168 171 167 171 171 170 153 146 144 146 148 153 157 163 170 171 166 162 159 159 155 153 154 154 161 134 155 165 158 159 153 151 152 149 146 144 139 135 127 116 103 99 97 89 79 73 67 60 54 42 34 27 20 8 29 43 34 38 43 41 44 38 32 28 27 14 14 9 4 1 357 3 6 7 8 7 8 18
182 182 181 170 170 171 171 170 168 165 169 168 154 145 144 146 151 153 153 155 162 172 177 170 171 168 164 161 159 160 160 133 124 145 154 164 162 156 157 156 154 151 151 149 142 137 130 124 129 127 119 109 92 82 78 77 69 61 50 40 31 20 8 44 56 34 44 46 41 31 32 24 20 10 10 355 358 0 3 5 5 5 10 7 6
183 184 182 172 175 171 172 172 168 162 160 154 148 148 151 155 156 154 150 154 163 169 176 175 175 173 170 167 165 164 154 124 142 139 153 175 192 163 163 160 162 161 160 159 151 151 141 142 144 150 144 128 129 120 106 95 96 82 59 44 33 28 28 21 9 46 40 49 46 35 22 25 15 13 4 357 351 358 360 9 4 0 6 13 5
182 181 182 176 175 175 173 171 165 163 156 152 147 149 155 158 158 157 158 158 162 173 177 177 177 174 173 172 170 164 144 141 145 153 154 166 207 203 164 168 172 169 168 166 161 158 155 151 151 151 131 144 154 133 133 127 128 124 121 119 89 45 15 12 2 359 30 49 51 42 27 6 13 13 4 349 342 349 350 5 357 356 358 7 8
179 177 178 178 174 174 170 158 151 153 150 147 148 149 154 159 161 161 158 159 168 176 182 177 176 173 174 174 169 163 145 148 152 158 159 166 182 232 164 174 179 170 173 165 164 167 165 160 157 155 153 178 159 147 145 149 154 165 169 152 108 162 206 205 240 263 345 44 43 42 32 15 13 6 358 349 350 347 350 357 348 348 350 357 8
178 175 175 177 172 173 168 158 150 149 147 144 150 157 159 159 161 161 163 166 170 178 183 178 173 173 174 177 178 169 137 149 158 161 162 170 179 242 172 173 179 171 171 165 170 169 172 168 165 158 164 182 159 162 158 162 159 137 124 114 101 66 57 42 34 27 32 35 43 43 34 19 8 3 360 354 347 342 331 341 337 331 327 345 29
175 175 177 175 176 171 158 159 157 147 143 146 153 160 166 165 163 161 163 168 175 179 179 175 168 171 173 182 179 166 138 155 159 163 162 170 182 213 178 177 179 174 171 173 174 172 177 177 174 165 167 181 118 316 316 332 151 154 132 136 129 124 86 67 31 341 344 7 24 21 20 24 345 338 335 335 340 338 320 345 346 337 355 7 12
173 171 173 176 173 167 163 156 154 150 152 158 167 172 168 163 159 159 162 166 169 173 171 172 171 172 168 173 172 154 146 163 162 163 166 173 186 201 178 187 177 181 180 175 185 174 184 187 180 172 172 173 142 184 236 291 194 154 143 133 133 135 121 129 170 217 250 276 9 351 344 295 266 266 268 275 301 309 330 2 3 353 8 6 9
170 174 177 181 177 164 156 154 151 154 156 165 172 173 163 159 158 161 165 166 169 170 167 168 171 170 171 171 174 156 155 160 167 167 171 181 203 199 183 189 177 180 180 182 187 184 147 31 327 185 179 152 150 179 222 253 224 141 166 182 160 153 142 159 172 181 197 226 223 227 220 227 236 244 255 266 292 304 11 6 357 356 9 11 0
174 177 178 178 162 164 169 161 156 161 164 165 171 168 164 160 158 161 164 164 161 159 162 163 164 165 171 172 146 158 150 154 170 171 179 189 212 212 193 183 182 180 179 182 190 187 159 176 216 350 350 132 155 180 209 237 228 155 173 197 163 149 119 186 210 205 185 202 199 208 220 222 231 229 212 208 261 278 7 2 2 4 8 6 2
182 181 177 170 173 170 164 165 166 163 158 163 162 160 154 148 156 157 153 156 154 155 160 159 160 160 157 158 156 166 150 156 172 176 185 195 220 236 191 189 184 181 187 180 189 187 179 173 157 139 83 138 159 179 201 228 268 215 210 216 197 161 163 141 5 336 95 353 46 329 330 315 273 259 284 220 226 14 354 11 5 1 4 2 6
174 189 181 177 177 174 168 171 171 164 162 155 143 154 160 155 153 151 153 151 145 150 157 152 151 144 148 150 161 160 157 157 163 178 187 200 216 244 219 196 188 185 189 186 191 183 179 186 178 129 144 142 170 174 199 222 257 287 247 311 43 37 332 189 157 256 247 212 226 225 232 214 215 270 258 4 19 4 7 9 10 2 2 3 1
187 182 182 185 180 179 169 170 167 158 121 126 135 142 147 149 155 154 156 149 147 141 138 143 143 140 141 149 156 153 143 150 159 175 191 199 221 236 256 193 204 183 198 184 188 179 182 183 162 136 146 157 169 178 191 222 241 259 52 85 67 95 267 286 228 222 230 236 241 227 267 294 317 21 335 359 19 4 348 3 8 358 4 9 359
181 175 175 177 175 173 152 157 158 154 145 135 136 134 137 141 135 130 136 138 129 123 124 126 133 136 139 149 153 149 140 133 154 169 187 201 214 240 270 300 71 264 188 187 182 171 185 143 104 127 143 154 165 174 189 193 220 224 91 106 126 249 275 248 291 267 256 241 279 268 262 281 295 330 356 340 7 356 328 354 339 341 345 329 355
179 171 167 169 169 166 152 150 153 144 142 137 107 118 132 136 138 142 150 151 151 150 156 150 146 146 159 162 155 145 143 144 157 166 172 196 207 240 267 312 189 228 203 187 186 160 180 156 123 134 141 151 156 168 167 206 234 121 146 143 197 232 251 256 229 239 246 235 231 231 240 330 282 313 355 338 344 334 310 303 302 299 297 321 291
172 167 165 162 157 153 146 136 134 131 136 139 135 131 133 140 141 153 160 157 156 152 147 144 146 147 142 151 161 160 158 153 158 162 164 175 202 214 231 242 235 342 243 180 190 100 82 97 121 138 143 154 152 153 155 144 129 149 169 185 220 228 226 243 245 225 232 226 225 225 208 205 257 290 316 304 297 265 285 302 295 275 292 275 242
167 164 159 154 153 151 143 125 123 128 130 134 131 143 148 152 150 149 152 147 150 154 158 164 166 173 177 172 169 163 152 161 161 155 158 165 183 193 216 203 236 292 5 71 83 100 109 112 119 130 143 157 170 189 201 164 170 181 188 209 227 233 232 222 219 225 231 219 217 241 251 239 234 37 289 264 268 299 330 315 309 299 313 313 311
165 159 152 151 154 153 146 139 132 135 151 152 161 168 165 160 150 145 148 150 161 172 172 179 182 176 167 175 164 155 165 174 167 164 174 175 186 168 182 185 178 260 202 145 128 108 128 146 151 159 109 173 252 43 97 126 161 191 199 209 226 234 212 230 241 243 232 248 233 236 228 261 259 236 242 249 262 280 332 310 306 318 315 318 297
167 163 153 150 154 150 141 140 135 133 141 149 157 158 157 161 162 163 167 171 176 180 179 181 180 170 172 170 159 170 175 184 175 173 176 180 187 186 191 194 190 197 199 179 179 156 151 131 139 181 169 190 201 205 200 195 199 197 203 202 212 213 73 25 324 268 262 259 277 274 251 245 249 255 273 261 271 281 308 303 313 309 313 305 293
168 162 157 152 149 140 144 149 153 150 150 158 166 163 168 171 167 169 169 186 184 173 167 166 168 162 159 158 165 173 197 196 187 172 177 181 185 182 186 189 192 192 193 155 172 163 171 180 191 196 196 199 202 204 190 197 197 198 206 214 204 200 205 210 209 217 209 212 226 242 267 259 267 257 250 260 262 274 246 298 303 297 305 296 301
164 159 159 156 145 142 145 149 149 152 161 166 164 122 42 47 38 165 157 72 69 61 122 150 154 157 167 178 187 195 197 194 159 157 163 172 185 188 182 183 186 195 131 140 177 177 188 191 201 201 206 204 207 209 198 196 197 196 194 207 228 218 213 213 226 231 190 229 258 236 243 271 266 263 272 281 287 282 269 246 279 291 287 299 307
161 159 156 157 154 153 150 153 158 167 169 164 157 158 164 97 57 61 83 96 97 107 122 109 145 169 186 195 205 59 108 140 148 152 153 163 171 176 161 161 139 121 135 150 196 206 197 205 208 208 207 216 211 213 209 208 204 207 203 185 211 217 224 235 229 217 219 228 233 256 265 255 263 268 278 280 292 290 285 270 278 277 287 298 299
165 164 163 143 137 145 158 152 161 173 178 180 176 173 174 167 136 59 90 125 114 114 134 152 164 198 230 261 256 171 123 144 152 153 163 165 171 163 145 138 133 143 159 173 204 209 213 213 216 219 215 217 219 221 218 215 204 210 211 210 212 209 213 225 223 230 222 229 236 242 242 251 263 277 281 281 285 281 280 289 289 290 292 290 298
167 161 151 143 147 147 149 151 159 174 175 176 177 180 181 176 173 167 113 80 121 154 163 177 187 209 224 236 260 335 176 162 164 163 166 173 169 167 155 150 150 154 149 190 214 218 218 224 223 224 222 222 217 218 221 229 221 219 214 208 214 217 220 213 193 238 259 270 267 251 250 250 254 258 258 262 261 267 277 283 279 282 283 284 285
159 163 158 156 159 162 167 168 179 185 186 186 184 189 186 186 186 170 167 164 148 160 200 197 195 190 213 217 230 206 146 157 172 173 173 172 172 163 154 144 125 165 197 209 214 226 224 223 230 232 227 221 223 219 226 226 225 221 220 223 222 219 215 199 208 222 231 234 235 241 247 254 257 259 263 270 274 277 277 272 275 277 284 290 292
175 124 135 165 171 170 172 175 184 180 180 189 187 189 189 191 184 174 175 172 179 188 192 186 187 197 201 198 214 194 163 164 170 176 176 173 165 155 140 145 161 194 221 224 224 222 226 226 231 236 243 236 227 228 225 226 226 225 225 223 224 221 223 219 229 235 235 234 244 248 252 262 262 267 271 273 276 279 284 289 288 285 283 287 292
189 183 166 172 174 177 182 187 200 196 182 186 189 192 193 186 185 183 175 167 173 174 173 179 175 179 202 201 173 178 172 171 176 175 174 164 156 153 174 193 191 200 205 211 221 227 231 230 230 233 236 240 237 229 229 229 229 231 226 222 223 227 225 231 232 232 237 252 262 273 278 266 265 269 270 268 264 259 260 261 267 273 278 279 286
189 187 187 190 192 189 200 207 208 202 184 182 188 194 189 177 170 158 151 156 168 184 186 161 145 135 164 175 150 146 148 163 166 168 163 164 166 180 202 196 202 203 207 211 214 220 225 231 238 240 236 237 238 237 232 231 233 232 230 241 238 233 234 241 249 250 249 253 256 256 253 261 267 268 268 273 274 274 273 273 271 271 269 273 278
195 189 185 185 196 197 200 208 194 129 165 176 178 172 168 162 157 155 156 163 168 186 192 173 168 167 172 173 155 162 118 100 98 96 114 139 173 204 214 213 210 211 210 214 212 215 222 229 232 239 248 247 246 245 242 240 233 239 231 224 233 239 239 261 252 255 257 265 267 260 257 252 248 250 250 254 261 271 276 278 280 280 280 265 259
198 153 160 168 191 193 197 201 185 185 183 183 182 178 171 168 157 157 160 163 172 183 187 176 182 180 173 152 159 138 132 151 167 165 166 183 191 206 220 224 223 221 221 215 204 209 221 224 234 245 250 251 250 249 248 248 247 246 245 245 238 240 208 233 242 241 240 247 253 253 255 259 259 260 263 266 264 265 267 272 272 272 273 276 277
187 160 153 149 192 204 206 204 188 188 182 187 183 179 167 176 177 168 161 152 172 176 185 181 180 178 158 156 156 161 178 173 178 173 178 177 190 200 209 219 222 221 220 220 214 214 217 231 241 243 241 244 249 256 261 263 261 258 255 249 249 243 244 251 258 256 252 249 252 258 261 261 264 267 268 268 270 271 273 271 272 271 273 278 282
159 139 142 173 199 190 199 197 191 198 179 188 175 176 178 171 175 171 172 168 175 181 186 178 175 178 169 160 156 168 175 173 172 172 163 170 182 200 206 214 218 224 228 232 230 225 227 233 246 258 265 262 258 254 257 261 267 267 264 261 255 257 260 253 252 262 265 267 268 270 269 267 270 270 269 269 269 268 268 269 269 267 264 260 261
161 151 154 171 178 207 193 190 185 176 173 173 177 180 166 164 161 164 163 165 166 172 177 175 169 172 125 137 152 167 172 162 166 166 171 175 183 204 219 220 223 223 222 219 219 221 235 241 245 257 268 270 260 259 259 259 261 263 264 263 262 259 256 259 254 250 254 262 262 257 258 266 270 275 277 280 278 277 275 274 273 275 276 277 277
166 169 165 161 176 192 191 177 176 175 180 184 186 171 166 171 175 171 167 165 164 169 173 169 160 119 122 148 156 174 210 183 178 179 179 180 188 190 189 201 205 212 213 205 202 280 308 262 255 250 256 260 257 248 246 249 251 257 258 257 261 261 261 262 267 264 256 252 256 257 252 249 252 255 262 263 261 263 265 267 265 264 265 267 266
156 155 157 163 171 166 160 168 170 162 166 100 101 136 156 167 171 177 175 169 159 161 168 177 160 143 136 135 148 171 203 216 160 180 184 181 183 174 171 171 179 174 170 128 30 25 2 290 267 256 254 263 264 259 250 248 256 261 273 274 270 261 258 261 262 265 267 271 272 268 248 232 237 255 261 257 258 260 260 257 256 257 261 264 267
156 159 158 171 179 181 175 172 167 142 126 125 148 149 159 168 166 178 176 166 153 155 162 157 151 160 154 157 166 178 193 205 200 197 194 169 142 116 128 163 172 167 192 201 200 212 231 246 260 274 276 273 273 274 270 264 257 251 253 259 266 270 270 269 270 279 285 279 274 270 269 269 259 256 259 259 255 249 253 255 253 248 245 249 252
169 167 167 173 165 166 154 150 140 144 152 155 152 156 165 172 157 155 158 150 153 174 169 151 151 164 160 147 154 165 182 188 192 190 179 158 142 170 178 191 189 189 172 172 184 206 224 228 241 254 256 249 254 260 264 263 257 255 261 265 275 277 290 283 281 277 274 269 264 265 266 262 259 260 258 264 266 266 264 259 256 252 251 249 244
124 133 145 167 164 145 135 120 136 156 159 143 135 128 143 150 137 128 126 122 132 147 154 157 162 168 157 145 143 149 161 172 175 168 169 178 168 163 149 147 136 160 166 170 186 209 223 211 233 242 257 274 285 286 292 295 302 305 308 298 281 288 295 306 295 280 276 271 263 262 263 265 264 260 251 247 255 255 256 257 257 258 259 261 265
110 112 115 110 120 129 126 126 113 107 117 136 153 161 141 119 112 114 122 127 135 144 141 141 147 126 124 124 129 129 129 126 109 106 130 150 159 153 150 163 166 156 142 147 173 208 238 240 255 270 274 271 270 277 284 296 289 286 275 313 29 11 4 354 328 316 305 303 294 282 268 265 267 270 275 279 280 284 283 279 275 270 266 264 262
94 99 123 158 151 146 142 132 126 136 151 152 142 144 117 112 114 118 121 126 136 136 140 148 138 130 116 109 109 108 104 103 111 121 126 133 146 152 164 145 147 147 149 164 184 201 208 227 234 247 250 267 270 269 263 280 343 13 19 26 12 8 7 355 332 328 332 311 284 282 280 275 274 274 278 276 276 276 275 279 284 284 286 283 284
86 88 118 132 138 137 137 139 140 133 120 129 130 121 113 118 120 118 119 121 116 120 121 115 111 104 102 106 104 110 117 123 120 113 105 106 110 118 129 143 153 148 156 167 195 195 197 204 206 205 7 19 37 41 41 39 32 26 22 18 6 7 2 349 341 350 327 306 298 290 292 292 294 295 296 294 292 289 286 281 283 287 286 286 281
96 99 101 111 118 128 134 147 153 151 146 141 134 137 142 120 103 93 94 98 110 108 104 97 92 89 87 86 91 98 95 88 85 92 107 119 124 118 107 99 126 157 160 147 144 160 113 77 65 57 53 49 50 54 53 51 45 36 22 16 14 8 4 359 359 344 332 305 298 298 305 309 308 306 303 304 308 301 308 311 301 295 291 291 295